Date String (YYYY-MM-DD hh:mm:ss) UTC,Instrument flags,absolute air pressure of the measurement (hPa),sample flow rate (lpm),inlet stack bypass flow (lpm),air temperature of the measurement (°C),ambient temperature measured by the external sensor (°C),aerosol sample conditioner tube jacket temperature (°C),OPC LED temperature (°C),internal box temperature (°C),relative humidity of the measurement (%),span deviation,mass concentration of particles derived from Lorenz-Mie calculation of OPC scattering (μg/m³),mass concentration of particles derived from Lorenz-Mie calculation of OPC scattering (μg/m³),mass concentration of particles derived from Lorenz-Mie calculation of OPC scattering (μg/m³)
DateTimeUTC,F1_M11,P_M11,Q1_M11,Q2_M11,T1_M11,T2_M11,T3_M11,T4_M11,T5_M11,U1_M11,ZSPAN_M11,X2_M11,X0_M11,X1_M11
2023-10-30 06:00:00,SystemResetWarning,0838.9,5.01,000.00,021.0,019.7,000.0,029.5,022.3,9.3,0000.0,0004.73,0006.23,0004.61
2023-10-30 06:01:00,SystemResetWarning,0838.9,5.00,000.00,021.1,020.1,000.0,029.5,022.6,9.3,0000.0,0004.73,0006.23,0004.61
2023-10-30 06:02:00,SystemResetWarning,0839.0,5.00,000.00,021.2,021.0,000.0,029.4,023.1,9.2,0000.0,0004.74,0006.29,0004.62
2023-10-30 06:03:00,SystemResetWarning,0839.0,5.00,000.00,021.3,021.4,000.0,029.5,023.2,9.1,0000.0,0004.74,0006.33,0004.61
2023-10-30 06:04:00,SystemResetWarning,0838.9,5.00,000.00,021.3,021.2,000.0,029.5,023.0,9.1,0000.0,0004.73,0006.34,0004.60
2023-10-30 06:05:00,SystemResetWarning,0838.9,4.99,000.00,021.3,020.9,000.0,029.6,022.8,9.1,0000.0,0004.71,0006.32,0004.60
2023-10-30 06:06:00,SystemResetWarning,0838.9,5.00,000.00,021.3,020.7,000.0,029.6,022.7,9.1,0000.0,0004.71,0006.30,0004.59
2023-10-30 06:07:00,SystemResetWarning,0838.9,5.00,000.00,021.2,020.4,000.0,029.6,022.6,9.2,0000.0,0004.70,0006.30,0004.59
2023-10-30 06:08:00,SystemResetWarning,0838.9,5.00,000.00,021.2,020.2,000.0,029.6,022.5,9.2,0000.0,0004.69,0006.30,0004.58
2023-10-30 06:09:00,SystemResetWarning,0838.9,5.00,000.00,021.2,020.1,000.0,029.6,022.4,9.2,0000.0,0004.68,0006.28,0004.57
2023-10-30 06:10:00,SystemResetWarning,0838.9,5.01,000.00,021.1,019.9,000.0,029.6,022.4,9.2,0000.0,0004.66,0006.27,0004.55
2023-10-30 06:11:00,SystemResetWarning,0838.9,5.01,000.00,021.1,019.8,000.0,029.6,022.3,9.3,0000.0,0004.65,0006.25,0004.54
2023-10-30 06:12:00,SystemResetWarning,0838.9,5.01,000.00,021.1,020.0,000.0,029.5,022.5,9.3,0000.0,0004.64,0006.26,0004.53
2023-10-30 06:13:00,SystemResetWarning,0838.9,5.00,000.00,021.2,020.8,000.0,029.5,023.0,9.2,0000.0,0004.63,0006.19,0004.52
2023-10-30 06:14:00,SystemResetWarning,0838.9,4.99,000.00,021.3,021.4,000.0,029.5,023.2,9.1,0000.0,0004.63,0006.19,0004.51
2023-10-30 06:15:00,SystemResetWarning,0839.0,4.99,000.00,021.4,021.2,000.0,029.5,023.1,9.1,0000.0,0004.64,0006.24,0004.51
2023-10-30 06:16:00,SystemResetWarning,0838.9,5.01,000.00,021.3,021.0,000.0,029.6,022.9,9.1,0000.0,0004.63,0006.22,0004.51
2023-10-30 06:17:00,SystemResetWarning,0838.9,5.01,000.00,021.3,020.7,000.0,029.6,022.7,9.1,0000.0,0004.62,0006.17,0004.51
2023-10-30 06:18:00,SystemResetWarning,0838.9,5.00,000.00,021.3,020.5,000.0,029.6,022.6,9.2,0000.0,0004.62,0006.19,0004.51
2023-10-30 06:19:00,SystemResetWarning,0838.8,4.99,000.00,021.2,020.3,000.0,029.6,022.6,9.2,0000.0,0004.61,0006.17,0004.50
2023-10-30 06:20:00,SystemResetWarning,0838.8,5.00,000.00,021.2,020.1,000.0,029.6,022.5,9.2,0000.0,0004.61,0006.17,0004.49
2023-10-30 06:21:00,SystemResetWarning,0838.8,5.01,000.00,021.1,019.9,000.0,029.6,022.4,9.3,0000.0,0004.60,0006.12,0004.49
2023-10-30 06:22:00,SystemResetWarning,0838.8,5.01,000.00,021.1,019.8,000.0,029.6,022.3,9.3,0000.0,0004.59,0006.12,0004.48
2023-10-30 06:23:00,SystemResetWarning,0838.8,5.00,000.00,021.1,019.9,000.0,029.5,022.5,9.3,0000.0,0004.58,0006.11,0004.47
2023-10-30 06:24:00,SystemResetWarning,0838.8,5.00,000.00,021.2,020.7,000.0,029.5,022.9,9.2,0000.0,0004.55,0006.05,0004.45
2023-10-30 06:25:00,SystemResetWarning,0838.9,4.99,000.00,021.3,021.4,000.0,029.5,023.2,9.2,0000.0,0004.54,0006.02,0004.43
2023-10-30 06:26:00,SystemResetWarning,0838.9,4.99,000.00,021.4,021.3,000.0,029.5,023.1,9.1,0000.0,0004.50,0005.86,0004.42
2023-10-30 06:27:00,SystemResetWarning,0838.8,5.00,000.00,021.3,021.0,000.0,029.6,022.9,9.1,0000.0,0004.50,0005.93,0004.41
2023-10-30 06:28:00,SystemResetWarning,0838.8,5.01,000.00,021.3,020.8,000.0,029.6,022.7,9.1,0000.0,0004.51,0006.13,0004.40
2023-10-30 06:29:00,SystemResetWarning,0838.8,5.00,000.00,021.3,020.6,000.0,029.6,022.6,9.1,0000.0,0004.49,0006.08,0004.39
2023-10-30 06:30:00,SystemResetWarning,0838.8,5.00,000.00,021.2,020.3,000.0,029.6,022.5,9.2,0000.0,0004.47,0006.15,0004.37
2023-10-30 06:31:00,SystemResetWarning,0838.8,5.00,000.00,021.2,020.2,000.0,029.6,022.5,9.2,0000.0,0004.46,0006.60,0004.37
2023-10-30 06:32:00,SystemResetWarning,0838.8,5.00,000.00,021.2,020.0,000.0,029.6,022.4,9.2,0000.0,0004.46,0006.63,0004.35
2023-10-30 06:33:00,SystemResetWarning,0838.8,5.00,000.00,021.1,019.8,000.0,029.6,022.3,9.2,0000.0,0004.44,0006.63,0004.33
2023-10-30 06:34:00,SystemResetWarning,0838.8,5.01,000.00,021.1,019.8,000.0,029.6,022.4,9.2,0000.0,0004.43,0006.59,0004.32
2023-10-30 06:35:00,SystemResetWarning,0838.9,5.01,000.00,021.2,020.5,000.0,029.5,022.8,9.2,0000.0,0004.42,0006.60,0004.31
2023-10-30 06:36:00,SystemResetWarning,0838.9,5.00,000.00,021.3,021.3,000.0,029.5,023.2,9.1,0000.0,0004.42,0006.61,0004.30
2023-10-30 06:37:00,SystemResetWarning,0838.9,5.00,000.00,021.4,021.3,000.0,029.5,023.1,9.1,0000.0,0004.40,0006.59,0004.28
2023-10-30 06:38:00,SystemResetWarning,0838.8,4.98,000.00,021.4,021.1,000.0,029.6,022.9,9.1,0000.0,0004.37,0006.47,0004.26
2023-10-30 06:39:00,SystemResetWarning,0838.8,5.01,000.00,021.3,020.8,000.0,029.6,022.8,9.1,0000.0,0004.35,0006.34,0004.24
2023-10-30 06:40:00,SystemResetWarning,0838.8,5.01,000.00,021.3,020.6,000.0,029.6,022.7,9.1,0000.0,0004.34,0006.31,0004.22
2023-10-30 06:41:00,SystemResetWarning,0838.8,5.00,000.00,021.2,020.4,000.0,029.6,022.5,9.1,0000.0,0004.33,0006.31,0004.21
2023-10-30 06:42:00,SystemResetWarning,0838.8,4.99,000.00,021.2,020.2,000.0,029.6,022.5,9.2,0000.0,0004.32,0005.73,0004.20
2023-10-30 06:43:00,SystemResetWarning,0838.8,4.99,000.00,021.2,020.0,000.0,029.6,022.4,9.2,0000.0,0004.30,0005.67,0004.19
2023-10-30 06:44:00,SystemResetWarning,0838.8,5.01,000.00,021.1,019.9,000.0,029.6,022.4,9.2,0000.0,0004.28,0005.58,0004.19
2023-10-30 06:45:00,SystemResetWarning,0838.8,5.01,000.00,021.1,020.0,000.0,029.6,022.6,9.2,0000.0,0004.28,0005.61,0004.17
2023-10-30 06:46:00,SystemResetWarning,0838.8,4.99,000.00,021.2,020.8,000.0,029.5,023.0,9.1,0000.0,0004.25,0005.56,0004.15
2023-10-30 06:47:00,SystemResetWarning,0838.8,5.00,000.00,021.4,021.4,000.0,029.5,023.2,9.1,0000.0,0004.24,0005.56,0004.13
2023-10-30 06:48:00,SystemResetWarning,0838.8,4.99,000.00,021.4,021.3,000.0,029.6,023.1,9.1,0000.0,0004.25,0005.66,0004.13
2023-10-30 06:49:00,SystemResetWarning,0838.8,5.00,000.00,021.4,021.0,000.0,029.6,022.9,9.1,0000.0,0004.26,0005.69,0004.12
2023-10-30 06:50:00,SystemResetWarning,0838.8,5.01,000.00,021.3,020.7,000.0,029.6,022.7,9.1,0000.0,0004.24,0005.58,0004.11
2023-10-30 06:51:00,SystemResetWarning,0838.8,5.01,000.00,021.3,020.5,000.0,029.6,022.6,9.1,0000.0,0004.22,0005.52,0004.09
2023-10-30 06:52:00,SystemResetWarning,0838.8,4.99,000.00,021.2,020.3,000.0,029.6,022.6,9.1,0000.0,0004.21,0005.49,0004.08
2023-10-30 06:53:00,SystemResetWarning,0838.8,4.99,000.00,021.2,020.1,000.0,029.6,022.5,9.1,0000.0,0004.20,0005.45,0004.07
2023-10-30 06:54:00,SystemResetWarning,0838.8,5.00,000.00,021.2,019.9,000.0,029.6,022.4,9.1,0000.0,0004.19,0005.46,0004.05
2023-10-30 06:55:00,SystemResetWarning,0838.7,5.00,000.00,021.1,019.8,000.0,029.6,022.3,9.2,0000.0,0004.18,0005.49,0004.04
2023-10-30 06:56:00,SystemResetWarning,0838.8,5.01,000.00,021.1,019.8,000.0,029.6,022.4,9.2,0000.0,0004.16,0005.46,0004.03
2023-10-30 06:57:00,SystemResetWarning,0838.8,5.01,000.00,021.2,020.6,000.0,029.5,022.9,9.1,0000.0,0004.16,0005.43,0004.03
2023-10-30 06:58:00,SystemResetWarning,0838.8,4.99,000.00,021.3,021.5,000.0,029.5,023.3,9.1,0000.0,0004.16,0005.42,0004.02
2023-10-30 06:59:00,SystemResetWarning,0838.8,5.00,000.00,021.5,021.8,000.0,029.5,023.4,9.0,0000.0,0004.11,0005.25,0004.00
